Simultaneous Nadir Overpasses (SNOs) Predictions

Prediction of SNOs between NOAA-15 and METOP-C Satellite Orbit:

Table of predicted SNOs for the next 14.0 days since TLE Epoch: 9/17/2022
Index Date (NOAA-15) Time (NOAA-15) Lat,Lon (NOAA-15) SZA (NOAA-15 ) Date (METOP-C) Time (METOP-C) Lat,Lon (METOP-C) SZA (METOP-C ) Distance(km) Time Diff (sec)
1 09/26/2022 02:44:17 81.07, 177.13 84.36 09/26/2022 02:43:06 81.08, 177.03 84.33 2.00 71
2 09/26/2022 03:34:52 -81.08, -15.60 95.63 09/26/2022 03:33:47 -81.08, -15.73 95.68 2.37 65
3 09/26/2022 04:25:19 81.08, 151.74 84.38 09/26/2022 04:24:27 81.09, 151.88 84.38 2.57 52
4 09/26/2022 05:15:54 -81.08, -40.98 95.62 09/26/2022 05:15:08 -81.09, -40.88 95.62 1.79 46
5 09/26/2022 06:06:21 81.09, 126.35 84.40 09/26/2022 06:05:49 81.08, 126.36 84.38 0.36 32
6 09/26/2022 06:56:56 -81.09, -66.37 95.60 09/26/2022 06:56:30 -81.08, -66.40 95.62 1.21 26
7 09/26/2022 07:47:22 81.08, 101.34 84.44 09/26/2022 07:47:10 81.09, 101.21 84.44 2.73 12
8 09/26/2022 08:37:57 -81.08, -91.39 95.55 09/26/2022 08:37:51 -81.09, -91.55 95.57 2.87 6
9 09/26/2022 09:28:25 81.10, 75.57 84.44 09/26/2022 09:28:32 81.08, 75.69 84.44 2.49 7
10 09/26/2022 10:18:59 -81.08,-116.78 95.53 09/26/2022 10:19:12 -81.09,-116.70 95.51 1.76 13
11 09/26/2022 11:09:26 81.09, 50.56 84.48 09/26/2022 11:09:53 81.09, 50.54 84.49 0.51 27
12 09/26/2022 12:00:01 -81.09,-142.16 95.51 09/26/2022 12:00:34 -81.09,-142.21 95.51 0.92 33
13 09/26/2022 12:50:28 81.09, 25.17 84.50 09/26/2022 12:51:15 81.08, 25.01 84.50 2.80 47
14 09/26/2022 13:41:03 -81.09,-167.55 95.50 09/26/2022 13:41:55 -81.09,-167.36 95.46 3.28 52
15 09/26/2022 14:31:30 81.10, -0.22 84.52 09/26/2022 14:32:36 81.09, -0.13 84.55 1.75 66



Historial Predications of SNOs between NOAA-15 and METOP-C
